CAPE
251 0 0 0 0 0 0 0 0 0 0 0 0 0 0 0 0 0 0 33 125 326 1075 1229 1751 1610 844 360 64 13 0 0 0 0 21 30 10 17 5 1 0 0 0 0 0 6 10 0 0
3 0 0 0 0 0 0 0 0 0 0 0 0 0 0 0 0 0 44 77 377 912 1183 1113 1835 1458 784 479 93 23 0 0 0 0 12 24 25 17 0 0 0 0 0 0 0 0 0 0 0
0 0 0 0 0 0 0 0 0 0 0 0 0 0 0 0 0 0 0 171 741 891 1061 1019 1866 1563 1130 623 134 47 1 0 0 0 5 8 28 23 4 0 0 0 0 0 0 0 0 0 0
0 0 0 0 0 0 0 0 0 0 0 0 0 0 0 0 0 0 77 256 449 640 821 1141 1835 1613 1472 863 238 56 1 0 0 0 7 24 12 32 15 10 0 0 0 0 0 0 0 0 0
0 0 0 0 0 0 0 0 0 0 0 0 0 0 0 0 0 2 182 289 260 341 423 1113 1838 1686 1467 675 244 87 21 0 0 0 0 12 33 86 29 23 2 0 0 0 0 0 0 0 0
0 0 0 0 0 0 0 0 0 0 0 0 0 0 0 0 0 0 81 130 142 230 292 1102 1642 1602 1600 861 415 194 81 23 3 0 0 1 21 36 120 42 5 0 0 0 0 0 0 0 0
0 0 0 0 0 0 0 0 0 0 0 0 0 0 0 0 0 0 1 76 117 197 389 940 1177 1357 1066 806 700 564 237 118 73 0 0 9 8 3 132 66 23 8 0 0 1 0 0 0 0
0 0 0 0 0 0 0 0 0 0 0 0 0 0 0 0 0 0 0 209 297 527 612 733 788 1036 666 630 671 563 425 194 149 37 14 16 0 0 5 279 150 64 18 20 12 3 0 0 0
0 0 0 0 0 0 0 0 0 0 0 0 0 0 0 0 0 0 0 89 243 465 513 603 539 622 528 499 455 504 373 166 118 41 0 0 0 0 0 17 100 277 87 53 23 5 18 109 76
1 0 0 0 0 0 0 0 0 0 0 0 0 0 0 0 0 0 0 100 102 296 288 442 412 368 425 611 367 231 187 76 18 2 0 0 0 0 0 0 5 30 77 148 33 62 136 75 0
1 2 0 0 0 0 0 0 0 0 0 0 0 0 0 0 0 0 0 0 28 83 77 209 241 260 324 453 216 110 55 26 0 0 0 0 0 0 0 0 0 0 0 0 0 0 0 0 0
0 0 0 0 0 0 0 0 0 0 0 0 0 0 0 0 0 0 0 0 0 0 0 49 69 87 186 293 195 133 30 4 0 0 0 0 0 0 0 0 0 0 0 0 0 0 0 0 0
0 0 0 0 0 0 0 0 0 0 0 0 0 0 0 0 0 0 0 0 0 0 0 0 17 30 116 171 94 54 37 0 0 0 0 0 0 0 0 0 0 0 0 0 0 0 0 0 0
0 0 0 0 0 0 0 0 0 0 0 0 0 0 0 0 0 0 0 0 0 0 0 0 15 51 78 270 101 47 20 7 0 0 0 0 0 0 0 0 0 0 0 0 0 0 0 0 0
0 0 0 0 0 0 0 0 0 0 0 0 0 0 0 0 0 0 0 0 0 0 0 0 0 4 55 234 107 24 30 13 0 0 0 0 0 0 0 0 0 0 0 0 0 0 0 0 0
1 0 0 0 0 0 0 0 0 0 0 0 0 0 0 0 0 0 0 0 0 0 0 0 1 0 18 57 1 29 0 0 0 0 0 0 0 0 0 0 0 0 0 0 0 0 0 0 0
0 0 0 0 0 0 0 0 0 0 0 0 0 0 0 0 0 0 0 0 0 0 0 0 0 0 0 0 0 0 0 0 0 0 0 0 0 0 0 0 0 0 0 0 0 0 0 0 0
0 0 0 0 0 0 0 0 0 0 0 0 0 0 0 0 0 0 0 0 0 0 0 0 0 0 0 0 0 0 0 0 0 0 0 0 0 0 0 0 0 0 0 0 0 0 0 0 0
0 0 0 0 0 0 0 0 0 0 0 0 0 0 0 0 0 0 0 0 0 0 0 0 0 0 0 0 0 0 0 0 0 0 0 0 0 0 0 0 0 0 0 0 0 0 0 0 0
0 2 1 0 0 0 0 0 0 0 0 0 0 0 0 0 0 0 0 0 0 0 0 0 0 0 0 0 0 0 0 0 0 0 0 0 0 0 0 0 0 0 0 0 0 0 0 0 0
0 2 3 2 0 0 0 0 0 0 0 0 0 0 0 0 0 0 0 0 0 0 0 0 0 0 0 0 0 0 0 0 0 0 0 0 0 0 0 0 0 0 0 0 0 0 0 0 0
2 0 0 4 22 1 0 0 0 0 0 0 0 0 0 0 0 0 0 0 0 0 0 0 0 0 0 0 0 0 0 0 0 0 0 0 0 0 0 0 0 0 0 0 0 0 0 0 0
7 0 7 23 7 1 0 3 0 0 0 0 0 0 0 0 0 0 0 0 0 0 0 0 0 0 0 0 0 0 0 0 0 0 0 0 0 0 0 0 0 0 0 0 0 0 0 0 0
2 5 10 10 8 4 0 0 0 0 0 0 0 0 0 0 0 0 0 0 0 0 0 0 0 0 0 0 0 0 0 0 0 0 0 0 0 0 0 0 0 0 0 0 0 0 0 0 0
13 13 3 12 13 0 0 0 0 0 0 0 0 0 0 0 0 0 0 0 0 0 0 0 0 0 0 0 0 0 0 0 0 0 0 0 0 0 0 0 0 0 0 0 0 0 0 0 0
0 4 7 0 0 0 0 0 0 0 0 0 0 0 0 0 0 0 0 0 0 0 0 0 0 0 0 0 0 0 0 0 0 0 0 0 0 0 0 0 0 0 0 0 0 0 0 0 0
12 13 0 2 0 0 0 0 0 0 0 0 0 0 0 0 0 0 0 0 0 0 0 0 0 0 0 0 0 0 0 0 0 0 0 0 0 0 0 0 0 0 0 0 0 0 0 0 0
4 0 18 15 0 0 0 0 0 0 0 0 0 0 0 0 0 0 0 0 0 0 0 0 0 0 0 0 0 0 0 0 0 0 0 0 0 0 0 0 0 0 0 0 0 0 0 0 0
6 8 5 3 0 1 0 0 0 0 0 0 0 0 0 0 0 0 0 0 0 0 0 0 0 0 0 0 0 0 0 0 0 0 0 0 0 0 0 0 0 0 0 0 0 0 0 0 0
0 0 12 5 0 0 0 0 0 0 0 0 0 0 0 0 0 0 0 0 0 0 0 0 0 0 0 0 0 0 0 0 0 0 0 0 0 0 0 0 0 0 0 0 0 0 0 0 0
CIN
-174 0 0 0 0 0 0 0 0 0 0 0 0 0 0 0 0 0 0 -650 -510 -374 -151 -107 -44 -39 -70 -108 -200 -298 0 0 0 0 0 -2 0 -1 0 0 0 0 0 0 0 -4 -1 0 0
-16 0 0 0 0 0 0 0 0 0 0 0 0 0 0 -19 0 0 -467 -545 -375 -228 -133 -122 -38 -49 -76 -104 -179 -269 0 0 0 0 0 0 0 0 0 0 0 0 0 0 0 0 0 0 0
0 0 0 0 0 0 0 0 0 0 0 0 0 0 0 0 0 0 0 -457 -279 -226 -158 -134 -37 -40 -55 -89 -152 -229 -30 0 0 0 0 0 0 0 -1 0 0 0 0 0 0 0 0 0 0
0 0 0 0 0 0 0 0 0 0 0 0 0 0 0 0 0 0 -573 -414 -334 -282 -214 -122 -40 -40 -31 -60 -121 -219 -38 0 0 0 -1 -2 -1 -1 -1 -7 0 0 0 0 0 0 0 0 0
0 0 0 0 0 0 0 0 0 0 0 0 0 0 0 0 0 -260 -475 -400 -390 -343 -307 -131 -41 -35 -36 -78 -125 -184 -246 0 0 0 0 -3 -39 -233 -80 -5 -5 0 0 0 0 0 0 0 0
0 0 0 0 0 0 0 0 0 0 0 0 0 0 0 0 0 0 -494 -483 -462 -398 -344 -130 -60 -43 -27 -61 -99 -125 -175 -249 0 0 0 -1 -92 -237 -144 -300 -13 0 0 0 0 0 0 0 0
0 0 0 0 0 0 0 0 0 0 0 0 0 0 0 0 0 0 -82 -498 -451 -394 -299 -150 -95 -63 -64 -68 -64 -65 -117 -157 -182 0 0 -225 -122 -56 -136 -213 -293 -355 0 0 -130 -15 0 0 0
0 0 0 0 0 0 0 0 0 0 0 0 0 0 0 0 0 0 0 -404 -368 -282 -237 -190 -156 -87 -128 -99 -73 -67 -71 -130 -133 -206 -236 -257 0 0 -380 -29 -91 -179 -286 -295 -343 -385 0 0 -13
0 0 0 0 0 0 0 0 0 0 0 0 0 0 0 0 0 0 0 -433 -367 -283 -269 -232 -220 -173 -169 -141 -120 -82 -96 -139 -177 -232 -16 0 0 0 0 -240 -148 -49 -173 -232 -324 -417 -350 -167 -232
-4 0 0 0 0 0 0 0 0 0 0 0 0 0 0 0 0 0 0 -353 -415 -348 -358 -290 -281 -261 -204 -111 -159 -185 -175 -246 -349 -172 0 0 0 0 0 0 -297 -294 -208 -144 -312 -268 -185 -199 0
-1 -1 0 0 0 0 0 0 0 0 0 0 0 0 0 0 0 0 0 0 -429 -426 -482 -406 -373 -332 -260 -174 -236 -282 -303 -341 0 0 0 0 0 0 0 0 0 0 0 0 0 0 0 0 0
0 0 0 0 0 0 0 0 0 0 0 0 0 0 0 0 0 0 0 0 0 0 0 -504 -507 -482 -368 -255 -272 -270 -343 -428 0 0 0 0 0 0 0 0 0 0 0 0 0 0 0 0 0
0 0 0 0 0 0 0 0 0 0 0 0 0 0 0 0 0 0 0 0 0 0 0 0 -546 -555 -445 -354 -368 -356 -363 0 0 0 0 0 0 0 0 0 0 0 0 0 0 0 0 0 0
0 0 0 0 0 0 0 0 0 0 0 0 0 0 0 0 0 0 0 0 0 0 0 0 -536 -516 -484 -314 -399 -404 -423 -378 0 0 0 0 0 0 0 0 0 0 0 0 0 0 0 0 0
0 0 0 0 0 0 0 0 0 0 0 0 0 0 0 0 0 0 0 0 0 0 0 0 0 -322 -495 -339 -387 -437 -404 -345 0 0 0 0 0 0 0 0 0 0 0 0 0 0 0 0 0
-2 0 0 0 0 0 0 0 0 0 0 0 0 0 0 0 0 0 0 0 0 0 0 0 -138 0 -401 -424 -285 -389 -51 0 0 0 0 0 0 0 0 0 0 0 0 0 0 0 0 0 0
-1 -1 0 0 0 0 0 0 0 0 0 0 0 0 0 0 0 0 0 0 0 0 0 0 0 0 0 0 0 0 0 0 0 0 0 0 0 0 0 0 0 0 0 0 0 0 0 0 0
0 -4 0 0 0 0 0 0 0 0 0 0 0 0 0 0 0 0 0 0 0 0 0 0 0 0 0 0 0 0 0 0 0 0 0 0 0 0 0 0 0 0 0 0 0 0 0 0 0
0 0 0 0 0 0 0 0 0 0 0 0 0 0 0 0 0 0 0 0 0 0 0 0 0 0 0 0 0 0 0 0 0 0 0 0 0 0 0 0 0 0 0 0 0 0 0 0 0
0 0 0 0 0 0 0 0 0 0 0 0 0 0 0 0 0 0 0 0 0 0 0 0 0 0 0 0 0 0 0 0 0 0 0 0 0 0 0 0 0 0 0 0 0 0 0 0 0
0 0 0 0 0 0 0 0 0 0 0 0 0 0 0 0 0 0 0 0 0 0 0 0 0 0 0 0 0 0 0 0 0 0 0 0 0 0 0 0 0 0 0 0 0 0 0 0 0
0 0 0 0 0 -1 0 0 0 0 0 0 0 0 0 0 0 0 0 0 0 0 0 0 0 0 0 0 0 0 0 0 0 0 0 0 0 0 0 0 0 0 0 0 0 0 0 0 0
0 -3 -5 -4 -3 -1 0 -1 0 0 0 0 0 0 0 0 0 0 0 0 0 0 0 0 0 0 0 0 0 0 0 0 0 0 0 0 0 0 0 0 0 0 0 0 0 0 0 0 0
-1 -2 -1 -3 -4 0 0 0 0 0 0 0 0 0 0 0 0 0 0 0 0 0 0 0 0 0 0 0 0 0 0 0 0 0 0 0 0 0 0 0 0 0 0 0 0 0 0 0 0
0 0 -1 0 0 0 0 0 0 0 0 0 0 0 0 0 0 0 0 0 0 0 0 0 0 0 0 0 0 0 0 0 0 0 0 0 0 0 0 0 0 0 0 0 0 0 0 0 0
0 0 0 0 0 0 0 0 0 0 0 0 0 0 0 0 0 0 0 0 0 0 0 0 0 0 0 0 0 0 0 0 0 0 0 0 0 0 0 0 0 0 0 0 0 0 0 0 0
0 0 0 -1 0 0 0 0 0 0 0 0 0 0 0 0 0 0 0 0 0 0 0 0 0 0 0 0 0 0 0 0 0 0 0 0 0 0 0 0 0 0 0 0 0 0 0 0 0
0 0 -1 -2 0 0 0 0 0 0 0 0 0 0 0 0 0 0 0 0 0 0 0 0 0 0 0 0 0 0 0 0 0 0 0 0 0 0 0 0 0 0 0 0 0 0 0 0 0
0 0 -7 -7 0 -2 0 0 0 0 0 0 0 0 0 0 0 0 0 0 0 0 0 0 0 0 0 0 0 0 0 0 0 0 0 0 0 0 0 0 0 0 0 0 0 0 0 0 0
-36 0 -13 -3 0 0 0 0 0 0 0 0 0 0 0 0 0 0 0 0 0 0 0 0 0 0 0 0 0 0 0 0 0 0 0 0 0 0 0 0 0 0 0 0 0 0 0 0 0
Wind_Speed
10 9 2 6 5 5 3 5 1 5 4 1 3 3 3 2 2 4 4 7 6 11 9 11 15 14 16 15 14 12 12 10 8 8 8 10 8 8 7 6 4 3 2 1 2 3 4 4 4
6 5 5 3 4 2 5 4 1 4 3 7 0 1 2 0 0 1 2 5 8 11 8 8 12 13 16 15 14 12 11 11 9 10 9 9 9 8 8 7 5 3 2 1 2 2 2 3 4
5 3 4 4 3 6 5 5 4 7 8 1 2 4 1 1 1 7 3 9 8 8 7 7 13 14 14 17 14 12 11 10 10 9 11 10 9 9 8 8 6 4 3 2 1 1 2 3 3
3 5 4 3 8 7 6 3 3 9 5 1 2 3 3 3 2 6 9 10 8 7 7 9 13 13 12 15 14 12 11 11 11 8 7 7 10 11 11 8 9 6 4 3 3 1 1 2 4
4 3 1 3 7 5 4 4 3 6 5 1 1 3 2 6 3 8 10 9 10 6 6 7 13 13 13 16 14 13 11 11 10 10 8 6 6 7 11 11 8 7 5 4 2 2 3 4 5
2 3 2 7 8 4 5 5 2 3 5 1 4 3 3 3 3 6 8 8 7 10 7 7 11 12 14 15 14 13 12 10 10 9 9 7 2 5 12 11 9 7 5 4 4 4 5 6 7
5 4 6 4 5 6 6 4 3 4 3 4 6 5 3 3 6 6 8 6 7 6 7 6 6 9 14 13 13 12 11 11 10 10 10 7 4 2 10 11 9 8 7 6 6 6 7 8 9
4 4 3 6 6 11 3 2 2 4 6 1 4 3 3 5 5 6 4 5 6 6 6 7 6 7 7 7 12 11 10 10 10 8 8 7 6 3 0 8 8 8 8 7 7 8 8 9 10
3 1 7 10 8 6 1 2 3 3 2 3 1 4 3 3 9 6 4 2 2 4 5 6 7 7 7 6 7 10 10 10 9 8 7 5 2 3 3 3 6 7 9 9 8 8 9 8 9
4 6 9 4 5 5 0 4 5 6 7 3 1 2 5 4 6 7 6 8 6 7 7 7 8 8 7 6 5 5 5 4 4 4 4 3 3 3 4 5 6 7 8 8 9 10 9 7 4
4 12 9 3 5 6 4 4 3 3 6 7 5 4 5 4 4 6 6 7 11 8 4 9 8 7 8 6 4 2 3 3 3 5 4 3 2 1 2 2 2 2 3 3 4 4 3 4 3
5 4 5 1 3 3 4 3 4 4 6 6 6 5 3 6 8 8 8 8 6 8 12 10 10 8 8 4 5 4 4 3 3 4 4 3 1 1 1 0 1 1 1 3 2 2 3 5 5
4 3 6 7 8 7 9 13 8 10 9 10 9 6 9 7 8 8 8 7 9 10 10 12 11 10 9 7 4 4 5 4 4 4 4 4 2 2 2 2 2 1 2 3 4 4 4 5 5
2 4 6 5 8 6 10 13 4 4 5 8 9 12 10 9 11 6 6 9 10 11 12 13 13 11 10 9 7 6 4 4 4 3 3 4 3 3 4 4 4 4 4 4 4 4 4 4 4
4 6 6 5 4 6 2 20 22 9 9 11 11 10 10 10 8 9 9 8 9 8 5 12 14 11 12 11 7 5 4 4 4 5 6 6 5 5 5 4 5 5 4 6 5 4 4 4 5
3 2 2 2 10 7 9 24 1 13 15 12 12 10 10 12 11 8 9 9 7 6 8 7 9 11 9 8 5 5 6 7 6 6 5 7 7 7 6 5 5 4 4 4 4 4 4 4 5
4 5 3 5 6 4 11 11 5 9 10 11 10 10 10 10 10 9 8 8 6 5 5 6 8 11 10 9 7 8 9 7 6 5 6 8 9 7 7 4 4 5 4 5 4 4 4 4 6
7 4 3 4 2 4 11 18 12 9 9 10 10 9 10 8 13 7 7 6 6 5 5 6 6 10 11 9 8 8 8 7 5 5 6 8 8 7 6 5 5 5 5 5 4 5 4 2 4
5 4 4 4 6 5 9 16 12 9 11 18 11 11 13 10 7 6 6 5 4 4 5 6 10 9 11 8 8 6 7 6 6 6 8 10 7 7 7 5 5 5 6 5 5 3 5 3 5
8 12 15 6 7 6 10 21 17 15 17 14 13 14 15 6 6 7 6 6 6 6 6 7 8 7 7 6 4 5 5 5 6 5 7 7 7 6 7 6 5 6 5 6 6 6 3 3 5
11 16 16 16 11 10 11 25 19 15 19 16 16 15 13 13 11 8 8 8 6 7 7 8 8 9 8 11 11 9 9 7 4 5 4 5 7 7 7 7 5 5 4 4 3 4 5 3 3
16 8 11 10 5 8 3 13 8 5 15 20 18 17 14 11 9 9 7 7 8 7 6 8 9 10 9 11 12 15 8 7 3 3 4 5 6 7 6 6 6 5 3 5 3 4 3 2 2
7 5 9 7 5 6 14 8 6 8 17 15 8 15 12 11 13 12 13 11 7 8 8 7 9 8 7 7 10 10 9 8 4 5 8 6 6 6 6 6 6 5 4 4 5 5 5 2 1
2 5 7 3 3 12 9 11 10 10 13 8 9 11 11 12 13 9 7 8 6 7 8 7 10 6 7 8 8 12 15 12 9 5 5 4 4 4 5 6 5 5 4 4 3 3 4 3 2
13 6 3 6 7 8 6 11 25 10 6 5 10 11 11 9 13 15 16 12 10 11 9 8 11 8 8 9 9 10 11 10 9 7 5 6 3 2 4 3 5 3 3 4 4 4 4 2 2
16 13 4 7 6 5 12 14 16 14 23 24 24 16 8 12 15 18 18 15 13 12 11 10 10 11 9 9 9 8 8 6 5 5 5 4 4 3 3 4 4 4 4 4 4 2 3 2 3
6 13 16 6 3 3 6 9 9 13 13 10 12 9 12 15 15 17 16 13 13 12 10 11 11 10 10 10 9 8 7 8 7 7 6 4 4 4 4 4 4 3 4 4 4 3 4 4 3
9 6 5 6 5 7 10 8 13 5 18 23 12 12 10 13 15 14 13 15 10 10 9 9 10 12 10 10 8 8 8 7 7 6 6 6 5 4 5 4 3 3 3 4 4 4 5 4 4
11 8 5 2 5 5 6 10 9 16 18 17 10 9 15 16 17 16 13 11 11 11 10 10 11 13 10 9 9 9 7 7 6 6 6 5 5 4 4 3 3 4 5 5 5 5 6 5 6
16 17 16 9 8 9 9 19 5 8 13 9 9 12 11 12 13 14 14 13 13 12 10 10 10 11 9 9 9 8 7 7 6 6 6 5 5 4 3 4 5 5 6 6 5 6 6 6 7
Wind_Direction
325 317 34 38 43 59 281 264 253 309 305 170 285 284 171 69 154 200 337 176 134 150 166 173 169 173 164 162 155 157 151 151 157 161 164 142 172 134 154 146 141 137 124 44 48 48 52 54 43
326 327 37 80 93 70 266 266 272 270 256 316 286 187 41 125 117 153 126 181 157 152 158 163 169 169 169 164 160 164 159 149 156 165 167 154 139 148 144 145 150 138 115 87 71 35 10 358 359
321 33 73 97 132 184 216 221 309 297 297 339 88 58 60 237 30 178 199 144 145 152 154 162 171 173 177 162 166 167 165 160 171 167 163 177 166 161 159 158 157 143 113 105 86 66 16 5 336
17 8 32 116 230 241 210 253 295 312 308 115 117 63 321 236 211 193 140 139 148 153 154 169 174 177 180 164 171 171 173 169 180 175 168 171 189 188 181 182 171 160 149 137 138 163 234 265 287
35 62 188 221 252 247 249 250 296 279 283 318 63 175 230 307 2 134 141 150 160 162 161 169 176 179 175 170 173 175 176 177 186 188 186 185 218 228 211 185 178 175 178 180 210 224 270 273 275
51 97 118 229 249 243 272 236 255 242 287 239 86 121 237 281 151 170 156 162 166 165 168 170 176 179 174 173 176 181 181 180 189 193 192 200 245 336 195 176 182 189 203 216 238 279 285 280 277
144 119 217 222 250 289 240 194 234 242 250 269 151 136 273 288 232 154 171 158 152 161 163 167 168 172 173 176 180 185 186 190 191 190 191 192 196 9 154 171 190 204 219 238 249 269 281 279 277
129 128 221 224 211 264 234 216 281 168 256 247 161 171 222 229 174 125 150 155 158 162 174 174 168 171 171 176 179 184 189 187 184 192 191 184 196 211 25 195 203 224 240 257 272 282 288 287 288
117 148 227 222 187 237 10 31 303 289 232 323 0 158 255 142 115 103 95 100 142 193 190 177 181 178 173 172 186 185 187 190 188 194 198 197 198 246 255 234 223 243 258 271 283 287 286 286 290
168 213 228 201 210 262 190 331 345 5 335 289 81 3 74 114 141 156 176 192 201 208 206 194 187 185 173 184 179 181 182 185 192 194 202 187 198 219 228 238 243 253 274 285 297 304 313 320 319
216 241 247 276 248 250 259 255 255 258 271 241 224 209 152 155 172 202 215 197 210 208 191 203 194 182 174 185 166 166 178 179 197 204 198 198 205 234 284 257 271 279 314 307 325 327 323 312 300
270 259 239 300 262 294 270 287 272 231 240 272 268 278 274 185 205 215 227 227 218 200 210 199 193 176 178 170 175 180 180 183 191 206 191 192 197 251 231 6 338 314 319 310 298 320 5 34 32
226 256 279 276 265 273 274 265 246 248 268 279 277 247 253 237 244 236 235 247 240 224 210 203 187 181 178 170 170 172 190 188 179 193 197 177 174 178 88 73 69 90 86 46 45 41 31 22 6
263 268 268 278 277 256 267 273 246 221 244 281 271 260 249 238 221 260 242 235 234 228 216 193 191 184 171 183 171 187 179 181 177 180 171 140 120 119 115 93 74 56 47 60 38 33 25 18 358
269 298 298 224 231 247 263 268 246 252 237 247 259 246 258 259 268 230 248 253 228 223 221 193 182 171 173 182 177 176 186 144 127 113 107 104 119 103 102 81 66 54 40 58 45 24 27 21 358
311 265 263 256 194 234 152 253 152 225 239 239 242 247 250 256 255 262 255 240 222 228 216 181 171 164 165 160 136 132 123 107 96 94 107 102 96 89 76 72 66 53 51 54 48 25 22 14 359
203 254 222 323 218 236 207 285 283 220 228 252 248 244 247 262 271 262 239 223 200 201 179 171 151 149 125 107 104 103 98 95 94 98 96 97 85 78 88 79 67 61 53 44 28 27 36 17 350
235 253 243 212 317 346 272 275 283 286 270 247 254 261 256 252 256 260 217 224 190 187 149 119 104 118 118 111 105 97 90 79 86 93 86 92 83 80 84 73 64 57 58 40 30 34 14 40 343
315 292 286 326 310 322 274 288 280 270 261 260 253 253 258 245 266 212 200 187 168 153 154 142 127 136 134 130 125 109 118 107 85 78 84 84 84 78 80 75 65 58 62 52 33 17 20 353 349
248 266 269 274 256 287 298 283 279 269 265 248 242 242 248 230 203 196 194 178 180 165 158 137 136 140 137 123 103 109 123 88 96 89 78 74 79 80 79 77 65 58 64 47 39 42 7 350 22
240 245 254 258 288 276 273 278 261 247 247 247 240 238 244 217 199 202 186 189 168 171 159 141 140 131 119 121 113 103 98 93 95 84 71 65 78 76 80 76 76 68 67 61 53 48 52 10 334
248 197 232 247 252 260 79 287 245 264 247 237 236 229 233 206 197 186 171 172 179 176 137 132 132 128 130 138 132 142 138 135 124 111 102 82 75 75 75 78 73 71 69 59 36 49 59 69 17
248 201 208 208 221 284 252 267 285 195 251 252 241 237 224 208 184 179 177 177 169 151 140 128 123 121 125 124 131 121 109 104 110 107 101 92 74 75 73 74 78 72 64 61 55 39 35 48 55
215 219 245 218 190 249 225 216 267 233 248 251 233 235 215 212 189 164 123 130 134 125 122 130 128 112 111 115 112 125 129 132 125 120 110 100 86 69 67 72 72 68 61 50 44 46 37 18 2
210 196 207 217 210 244 200 209 249 255 260 239 252 247 219 193 164 154 149 156 152 146 135 134 136 122 116 114 110 117 123 125 128 138 131 127 113 84 67 69 60 55 49 45 37 32 8 341 334
198 202 203 202 220 243 189 232 245 225 240 240 242 243 222 182 172 168 161 160 154 146 139 135 136 124 117 111 104 101 105 112 114 123 118 113 113 111 90 79 68 51 42 33 25 2 328 334 315
169 213 217 292 262 293 235 278 296 249 258 243 229 203 192 174 174 167 154 152 148 143 137 139 127 117 113 112 111 104 106 113 121 112 107 108 109 111 97 78 63 36 28 14 1 338 322 312 287
208 164 176 194 207 237 255 276 253 293 240 240 232 204 182 164 163 160 155 143 137 126 117 116 125 126 120 113 116 114 114 108 109 107 109 109 102 87 84 68 48 22 4 355 351 326 306 310 295
194 216 236 264 189 198 274 255 235 238 247 254 220 171 161 165 159 152 143 134 126 118 121 120 120 123 120 117 115 114 108 107 106 104 104 102 93 82 71 56 25 11 354 349 343 323 301 311 299
207 214 202 200 202 229 256 270 330 302 280 227 162 160 146 155 148 140 135 133 136 127 125 124 123 122 122 120 117 112 112 112 105 103 101 96 90 71 62 35 21 4 352 337 322 313 308 298 296